[[{"header":{"parameterUnit":"m.s-1","parameterCategory":1,"la1":30.2991,"la2":30.254,"lo1":-89.0895,"lo2":-89.0444,"dy":0.0017,"dx":0.0017,"nx":28,"ny":28,"refTime":"2024-12-08T03:00:00:Z","depth":0,"parameterNumber":2,"parameterNumberName":"U-component_of_WINDS"},"data":[0,0,0,0,0,0,0,0,0,0,0,0,0,0,0,0,0,0,0,0,0,0,0,0,0,0,0,0,0,0,0,0,0,0,0,0,0,0,0,0,0,0,0,0,0,0,0,0,0,0,0,0,0,0,0,0,0,0,-1.2331,-1.2332,0,-1.2369,-1.2369,-1.237,-1.237,-1.2369,-1.2369,-1.2369,-1.2404,-1.2406,-1.2407,0,0,0,0,0,0,0,0,0,0,0,0,0,-1.2255,-1.2256,-1.2331,-1.2332,-1.2332,-1.2369,-1.2369,-1.237,-1.237,-1.2369,-1.2369,-1.2368,-1.2404,-1.2405,-1.2407,0,0,0,0,0,0,0,0,0,0,0,0,0,-1.229,-1.2257,-1.2331,-1.2337,-1.2338,-1.2369,-1.2369,-1.237,-1.237,-1.2369,-1.2369,-1.2368,-1.2403,-1.2405,-1.2407,-1.2434,0,0,-1.2414,-1.2415,0,0,0,0,0,0,0,0,-1.2288,-1.2293,-1.2336,-1.2337,-1.2338,-1.2364,-1.2355,-1.2392,-1.237,-1.2358,-1.2368,-1.2368,-1.2391,-1.2394,-1.2403,-1.2436,-1.2438,-1.2414,-1.2415,-1.2416,-1.2417,0,0,0,0,0,0,0,-1.2285,-1.2291,-1.2346,-1.2336,-1.2337,-1.2336,-1.234,-1.2362,-1.2378,-1.2359,-1.2359,-1.2363,-1.2392,-1.2401,-1.2404,-1.2438,-1.2414,-1.2416,-1.2417,-1.2418,-1.2492,-1.2492,0,0,0,0,0,0,-1.2282,-1.2289,-1.2345,-1.2347,-1.2311,-1.2338,-1.2342,-1.2356,-1.2378,-1.238,-1.2364,-1.2363,-1.2398,-1.2401,-1.2405,-1.2436,-1.2416,-1.2418,-1.2419,-1.2491,-1.2492,-1.2493,0,0,0,0,0,0,-1.2281,-1.2287,-1.2344,-1.2318,-1.2325,-1.234,-1.2355,-1.2357,-1.2367,-1.2382,-1.2384,-1.2371,-1.2397,-1.2402,-1.2426,-1.2437,-1.2419,-1.2421,-1.249,-1.2491,-1.2492,-1.2499,0,0,0,0,0,0,-1.2279,-1.2287,-1.2299,-1.2318,-1.2327,-1.2366,-1.2356,-1.2359,-1.237,-1.237,-1.2389,-1.2391,-1.2397,-1.2423,-1.2428,-1.244,-1.2422,-1.2489,-1.2491,-1.2492,-1.2498,-1.25,-1.2502,0,0,0,0,0,-1.2276,-1.23,-1.2299,-1.2306,-1.2342,-1.2367,-1.2371,-1.2378,-1.2371,-1.2382,-1.2391,-1.2391,-1.2435,-1.2426,-1.2432,-1.2444,-1.2489,-1.249,-1.2492,-1.2497,-1.25,-1.2502,0,0,0,0,0,0,-1.2281,-1.2302,-1.2303,-1.2334,-1.2348,-1.2367,-1.2381,-1.2381,-1.2398,-1.2397,-1.2404,-1.2408,-1.2431,-1.244,-1.2429,-1.2469,-1.2461,-1.2464,-1.2463,-1.2466,-1.2468,-1.2465,-1.2424,0,0,0,0,0,-1.2286,-1.2305,-1.2322,-1.2348,-1.2355,-1.2367,-1.2378,-1.2382,-1.2397,-1.2403,-1.2414,-1.2428,-1.2444,-1.2456,-1.2472,-1.2499,-1.2502,-1.251,-1.2512,-1.2514,-1.2516,-1.2528,-1.2531,-1.2498,-1.2498,-1.2498,0,0,-1.2296,-1.231,-1.2322,-1.2349,-1.2361,-1.2379,-1.2372,-1.2393,-1.2405,-1.2406,-1.2429,-1.2438,-1.2453,-1.2478,-1.249,-1.2486,-1.2525,-1.2516,-1.2517,-1.2518,-1.253,-1.2533,-1.2535,-1.2499,-1.2499,-1.2499,0,0,-1.2323,-1.2336,-1.2358,-1.2369,-1.2387,-1.2394,-1.2399,-1.2417,-1.2422,-1.2446,-1.2446,-1.246,-1.249,-1.25,-1.2509,-1.2536,-1.2535,-1.2541,-1.2552,-1.2564,-1.2566,-1.2569,-1.2576,-1.2579,-1.2543,-1.2543,-1.2543,0,-1.2333,-1.2361,-1.2368,-1.2388,-1.2399,-1.24,-1.242,-1.243,-1.2452,-1.2459,-1.2454,-1.2489,-1.25,-1.2526,-1.2532,-1.2541,-1.2545,-1.2539,-1.2566,-1.2568,-1.257,-1.2577,-1.258,-1.2544,-1.2544,-1.2544,-1.2544,0,-1.2371,-1.239,-1.2405,-1.2426,-1.2438,-1.2458,-1.2466,-1.2478,-1.248,-1.2486,-1.2508,-1.2521,-1.2539,-1.2545,-1.2548,-1.2571,-1.2568,-1.2564,-1.2556,-1.2574,-1.258,-1.2583,-1.2545,-1.2545,-1.2544,-1.2544,0,0,-1.2404,-1.2426,-1.2432,-1.244,-1.2458,-1.2472,-1.249,-1.2508,-1.2516,-1.2531,-1.2545,-1.2568,-1.2564,-1.2574,-1.2578,-1.2588,-1.2605,-1.2583,-1.2583,-1.2585,-1.2629,-1.263,-1.2634,-1.2605,-1.2605,-1.2606,-1.2627,0,-1.2432,-1.2465,-1.2471,-1.2499,-1.2516,-1.2515,-1.2531,-1.2542,-1.2548,-1.2562,-1.2568,-1.2584,-1.2579,-1.2584,-1.2594,-1.2601,-1.2614,-1.26,-1.2616,-1.2617,-1.2611,-1.2638,-1.264,-1.2659,-1.263,-1.263,-1.2631,0,-1.2469,-1.2483,-1.2514,-1.2526,-1.2533,-1.2548,-1.2562,-1.2576,-1.2588,-1.2591,-1.2601,-1.2602,-1.2619,-1.261,-1.2632,-1.2622,-1.2628,-1.2632,-1.2633,-1.2634,-1.2624,-1.2638,-1.2666,-1.2668,-1.2635,-1.2635,-1.2634,0,-1.2487,-1.2514,-1.2535,-1.2542,-1.2558,-1.2568,-1.2575,-1.2586,-1.2595,-1.2607,-1.2613,-1.2627,-1.2634,-1.2645,-1.2648,-1.2642,-1.2669,-1.2661,-1.2671,-1.2671,-1.2676,-1.2676,-1.2704,-1.2683,-1.2682,-1.2682,-1.2682,0,-1.2517,-1.2535,-1.2543,-1.2556,-1.2575,-1.2579,-1.2598,-1.2604,-1.2614,-1.2626,-1.2627,-1.2638,-1.2643,-1.2655,-1.2658,-1.2674,-1.2678,-1.268,-1.268,-1.2679,-1.2679,-1.2683,-1.2682,-1.2683,-1.2683,-1.2683,-1.2683,0,-1.2541,-1.2547,-1.2569,-1.2582,-1.2585,-1.2599,-1.2609,-1.262,-1.2625,-1.264,-1.2644,-1.2652,-1.2665,-1.267,-1.2687,-1.2689,-1.2707,-1.2707,-1.2703,-1.2703,-1.2712,-1.271,-1.2743,-1.2747,-1.2724,-1.2724,-1.2724,0,-1.2559,-1.2572,-1.2586,-1.2594,-1.2601,-1.2615,-1.2624,-1.2628,-1.2637,-1.265,-1.2659,-1.2672,-1.2683,-1.2704,-1.271,-1.2722,-1.2722,-1.2732,-1.2723,-1.2721,-1.272,-1.2718,-1.2719,-1.2734,-1.2734,-1.2734,-1.2734,0,-1.2589,-1.2591,-1.2604,-1.2617,-1.2627,-1.2638,-1.2648,-1.2655,-1.266,-1.2669,-1.2683,-1.2691,-1.2707,-1.272,-1.2732,-1.2737,-1.2736,-1.2737,-1.2739,-1.2738,-1.2735,-1.2735,-1.2706,-1.2736,-1.2736,-1.2736,-1.2736,-1.2736,-1.2609,-1.262,-1.263,-1.2644,-1.2652,-1.2661,-1.2671,-1.2676,-1.2688,-1.2701,-1.2703,-1.2717,-1.2726,-1.2741,-1.2747,-1.2757,-1.2754,-1.2758,-1.2759,-1.276,-1.276,-1.2734,-1.276,-1.2759,-1.2759,-1.2759,-1.2759,0,-1.2638,-1.2644,-1.2656,-1.267,-1.268,-1.2678,-1.2688,-1.2696,-1.2709,-1.2717,-1.2727,-1.2741,-1.2753,-1.2759,-1.277,-1.2777,-1.2776,-1.2779,-1.2779,-1.2779,-1.2763,-1.2759,-1.278,-1.278,-1.278,-1.278,-1.278,-1.278,-1.2654,-1.2671,-1.2674,-1.2694,-1.27,-1.2713,-1.2719,-1.2726,-1.2733,-1.2749,-1.2758,-1.2762,-1.2769,-1.278,-1.279,-1.2791,-1.2795,-1.2798,-1.2799,-1.2783,-1.2781,-1.2779,-1.2775,-1.2799,-1.2799,-1.2815,-1.2815,-1.2815]},{"header":{"parameterUnit":"m.s-1","parameterCategory":1,"la1":30.2991,"la2":30.254,"lo1":-89.0895,"lo2":-89.0444,"dy":0.0017,"dx":0.0017,"nx":28,"ny":28,"refTime":"2024-12-08T03:00:00:Z","depth":0,"parameterNumber":3,"parameterNumberName":"V-component_of_WINDS"},"data":[0,0,0,0,0,0,0,0,0,0,0,0,0,0,0,0,0,0,0,0,0,0,0,0,0,0,0,0,0,0,0,0,0,0,0,0,0,0,0,0,0,0,0,0,0,0,0,0,0,0,0,0,0,0,0,0,0,0,2.1476,2.1474,0,2.1346,2.1344,2.1343,2.1277,2.1277,2.1277,2.1277,2.1137,2.1133,2.1129,0,0,0,0,0,0,0,0,0,0,0,0,0,2.1663,2.166,2.1476,2.1474,2.1472,2.1346,2.1344,2.1342,2.1277,2.1277,2.1277,2.1277,2.1138,2.1133,2.1129,0,0,0,0,0,0,0,0,0,0,0,0,0,2.1562,2.1659,2.1476,2.1425,2.1419,2.1346,2.1344,2.1342,2.1277,2.1277,2.1277,2.1277,2.1139,2.1134,2.1128,2.1094,0,0,2.1111,2.1109,0,0,0,0,0,0,0,0,2.1568,2.1555,2.1434,2.1428,2.1422,2.1328,2.1358,2.1258,2.1277,2.1331,2.1277,2.1277,2.12,2.1189,2.1164,2.1087,2.1081,2.1111,2.1107,2.1105,2.1103,0,0,0,0,0,0,0,2.1575,2.156,2.1424,2.1432,2.1425,2.1407,2.1393,2.1339,2.1267,2.1326,2.1321,2.1307,2.1196,2.117,2.1161,2.1079,2.1111,2.1106,2.1102,2.11,2.0969,2.0969,0,0,0,0,0,0,2.1591,2.1567,2.1428,2.142,2.1496,2.1404,2.1387,2.1358,2.1267,2.1253,2.1307,2.1304,2.118,2.1167,2.1156,2.111,2.1105,2.11,2.1096,2.097,2.0969,2.0969,0,0,0,0,0,0,2.1595,2.1579,2.1433,2.1492,2.1472,2.14,2.1367,2.1355,2.1329,2.1253,2.1239,2.1294,2.1179,2.1163,2.1111,2.1105,2.1097,2.1092,2.097,2.0969,2.0969,2.102,0,0,0,0,0,0,2.1601,2.1581,2.1568,2.1492,2.1469,2.1392,2.1367,2.1353,2.132,2.1316,2.1237,2.1224,2.1178,2.112,2.1105,2.1097,2.1088,2.097,2.097,2.0969,2.1018,2.1021,2.1024,0,0,0,0,0,2.1608,2.1586,2.1568,2.1552,2.1452,2.1392,2.1379,2.1328,2.132,2.1306,2.1258,2.1226,2.1108,2.1115,2.1098,2.1088,2.097,2.097,2.0969,2.1017,2.1021,2.1024,0,0,0,0,0,0,2.1659,2.1574,2.1554,2.1507,2.1458,2.1381,2.1362,2.1334,2.1284,2.1281,2.1219,2.1201,2.1155,2.1116,2.1125,2.1051,2.1036,2.1032,2.1078,2.1081,2.1083,2.1093,2.1083,0,0,0,0,0,2.1666,2.1626,2.1553,2.1519,2.1496,2.1434,2.1405,2.1372,2.1317,2.1295,2.1242,2.1188,2.1139,2.1108,2.1058,2.1013,2.0995,2.0998,2.1001,2.1003,2.1001,2.0975,2.0975,2.0968,2.0968,2.0968,0,0,2.1677,2.1626,2.1604,2.1528,2.1486,2.1445,2.1416,2.1373,2.1342,2.1287,2.1235,2.1195,2.1131,2.1083,2.1059,2.1049,2.0999,2.1003,2.1006,2.1001,2.0974,2.0975,2.0976,2.0968,2.0968,2.0968,0,0,2.1678,2.1636,2.1603,2.1563,2.1501,2.146,2.1452,2.1381,2.1353,2.1301,2.126,2.1221,2.1137,2.1094,2.1061,2.1049,2.1018,2.1035,2.1049,2.1024,2.1025,2.1025,2.1021,2.102,2.1032,2.1032,2.1033,0,2.1699,2.1638,2.1589,2.155,2.1518,2.147,2.1437,2.1399,2.1323,2.1301,2.1292,2.1188,2.1141,2.1083,2.1081,2.1055,2.1044,2.1042,2.1029,2.1029,2.1028,2.1023,2.1022,2.1035,2.1035,2.1034,2.1034,0,2.1668,2.1627,2.1607,2.1539,2.1505,2.1468,2.1413,2.1384,2.1354,2.1314,2.1262,2.1205,2.1144,2.1127,2.1096,2.1065,2.1061,2.1042,2.1025,2.1032,2.1027,2.1024,2.1038,2.1037,2.1037,2.1036,0,0,2.1694,2.1603,2.1596,2.1566,2.1495,2.1461,2.1423,2.1367,2.1343,2.1293,2.1258,2.1191,2.1174,2.1136,2.11,2.1079,2.1074,2.1062,2.1059,2.1066,2.1036,2.1051,2.105,2.1054,2.1054,2.1053,2.1042,0,2.1685,2.1617,2.1573,2.1522,2.1483,2.1439,2.1406,2.1358,2.1321,2.1281,2.1238,2.1192,2.1172,2.115,2.1127,2.108,2.1067,2.108,2.102,2.1019,2.1037,2.1047,2.1061,2.1053,2.1039,2.1039,2.1038,0,2.1664,2.1619,2.1565,2.1502,2.1483,2.1455,2.14,2.1364,2.1309,2.1283,2.1244,2.1208,2.1165,2.1154,2.1093,2.1103,2.1076,2.105,2.1048,2.1039,2.1028,2.1038,2.1049,2.1048,2.1035,2.1035,2.1035,0,2.1689,2.1615,2.1573,2.1548,2.1473,2.1454,2.1421,2.1367,2.1337,2.1289,2.1268,2.1215,2.1186,2.1145,2.1095,2.1092,2.104,2.1024,2.1016,2.1017,2.1005,2.1006,2.1011,2.099,2.099,2.099,2.099,0,2.1682,2.1651,2.1584,2.1558,2.1522,2.1472,2.1437,2.14,2.1353,2.1318,2.1276,2.1244,2.1182,2.1142,2.1102,2.1058,2.1045,2.1022,2.1012,2.1025,2.1028,2.1005,2.1004,2.0989,2.0989,2.0989,2.0989,0,2.1703,2.1657,2.1609,2.1544,2.1527,2.1503,2.1446,2.1418,2.138,2.1337,2.1324,2.1263,2.1214,2.1162,2.1093,2.1067,2.1025,2.1011,2.1044,2.1038,2.1033,2.1034,2.1023,2.1019,2.1001,2.1001,2.1002,0,2.1702,2.1677,2.1611,2.1586,2.1556,2.1516,2.1486,2.1437,2.1407,2.1345,2.1325,2.1274,2.123,2.1154,2.1102,2.105,2.1034,2.1034,2.1025,2.1041,2.1033,2.1035,2.1032,2.1036,2.1036,2.1037,2.1037,0,2.1704,2.1683,2.1643,2.1596,2.1563,2.1522,2.1479,2.1461,2.1403,2.1371,2.1323,2.1289,2.1223,2.1172,2.1115,2.1078,2.1047,2.1041,2.1036,2.1048,2.1069,2.1058,2.1051,2.104,2.104,2.104,2.104,2.1039,2.1713,2.169,2.1641,2.1598,2.1562,2.1524,2.1496,2.1456,2.1416,2.1359,2.1332,2.1284,2.1231,2.1152,2.1117,2.1077,2.1067,2.106,2.1058,2.1057,2.1061,2.1077,2.1066,2.1066,2.1066,2.1066,2.1066,0,2.1713,2.168,2.1642,2.1586,2.1552,2.1531,2.1483,2.1455,2.1415,2.137,2.1329,2.1273,2.1225,2.1171,2.1119,2.1097,2.1082,2.1085,2.1085,2.1078,2.1072,2.1082,2.1099,2.1099,2.1099,2.1099,2.1099,2.1099,2.1709,2.1669,2.1644,2.1586,2.1552,2.1507,2.1482,2.1446,2.1411,2.1352,2.1313,2.1279,2.123,2.1175,2.1129,2.1114,2.1096,2.1104,2.1085,2.1081,2.1078,2.1075,2.1084,2.1101,2.1101,2.1093,2.1093,2.1093]}]]